Radiation Dose measured at exhaust stack monitor of Fukushima Daiichi Nuclear Power Station
Date,Time,Unit 5 6 shared exhaust cylinders,Wind Direction,Wind Velocity(m/s)
2023/09/04,00:00,3.6,north-northwest,3.3
2023/09/04,00:10,3.7,north-northwest,3.9
2023/09/04,00:20,3.7,north-northwest,3.4
2023/09/04,00:30,3.6,north-northwest,3.4
2023/09/04,00:40,3.4,north-northwest,3.2
2023/09/04,00:50,3.8,north,3.0
2023/09/04,01:00,3.7,north-northeast,2.3
2023/09/04,01:10,3.6,north-northeast,3.0
2023/09/04,01:20,3.8,north,2.6
2023/09/04,01:30,3.6,north,2.9
2023/09/04,01:40,3.7,north,2.9
2023/09/04,01:50,3.7,north,3.8
2023/09/04,02:00,3.5,north,2.5
2023/09/04,02:10,3.5,north-northwest,2.8
2023/09/04,02:20,3.5,north-northwest,3.0
2023/09/04,02:30,3.7,north-northwest,3.2
2023/09/04,02:40,3.6,north-northwest,2.8
2023/09/04,02:50,3.7,north-northwest,2.6
2023/09/04,03:00,3.5,north,2.9
2023/09/04,03:10,3.7,north,2.6
2023/09/04,03:20,3.7,north,2.8
2023/09/04,03:30,3.6,north,2.6
2023/09/04,03:40,3.6,north,2.8
2023/09/04,03:50,3.6,north-northwest,3.4
2023/09/04,04:00,3.6,north-northwest,3.4
2023/09/04,04:10,3.6,north-northwest,3.6
2023/09/04,04:20,3.6,north-northwest,4.5
2023/09/04,04:30,3.5,north,4.4
2023/09/04,04:40,3.8,north,5.0
2023/09/04,04:50,3.7,north,4.0
2023/09/04,05:00,3.5,north,4.9
2023/09/04,05:10,3.6,north,4.9
2023/09/04,05:20,3.5,north,4.8
2023/09/04,05:30,3.8,north,4.7
2023/09/04,05:40,3.7,north,4.4
2023/09/04,05:50,3.6,north,4.7
2023/09/04,06:00,3.6,north-northeast,5.3
2023/09/04,06:10,3.7,north-northeast,5.8
2023/09/04,06:20,3.6,north-northeast,6.3
2023/09/04,06:30,3.5,northeast,6.2
2023/09/04,06:40,3.6,northeast,6.9
2023/09/04,06:50,3.6,northeast,6.3
2023/09/04,07:00,3.8,east-northeast,7.0
2023/09/04,07:10,3.7,east,6.7
2023/09/04,07:20,3.5,east,5.7
2023/09/04,07:30,3.6,east,7.8
2023/09/04,07:40,3.4,east-southeast,6.8
2023/09/04,07:50,3.5,east,5.9
2023/09/04,08:00,3.7,east,6.3
2023/09/04,08:10,3.5,east-northeast,5.9
2023/09/04,08:20,3.7,east-northeast,4.9
2023/09/04,08:30,3.6,east-northeast,6.1
2023/09/04,08:40,3.5,east-northeast,5.5
2023/09/04,08:50,3.6,east-northeast,5.4
2023/09/04,09:00,3.6,east-northeast,5.9
2023/09/04,09:10,3.8,east-northeast,5.9
2023/09/04,09:20,3.7,northeast,4.3
2023/09/04,09:30,3.7,north-northeast,3.6
2023/09/04,09:40,3.7,north-northeast,3.3
2023/09/04,09:50,3.6,northwest,4.5
2023/09/04,10:00,3.6,north,5.2
2023/09/04,10:10,3.5,north-northeast,6.0
2023/09/04,10:20,3.6,north-northeast,7.2
2023/09/04,10:30,3.6,northeast,7.4
2023/09/04,10:40,3.7,north,9.2
2023/09/04,10:50,3.6,north-northeast,8.7
2023/09/04,11:00,3.6,east-northeast,8.5
2023/09/04,11:10,3.6,east-northeast,4.0
2023/09/04,11:20,3.6,east,8.2
2023/09/04,11:30,3.7,east-southeast,6.9
2023/09/04,11:40,3.6,southeast,5.7
2023/09/04,11:50,3.7,east-southeast,5.4
2023/09/04,12:00,3.6,east,6.3
2023/09/04,12:10,3.6,east,6.4
2023/09/04,12:20,3.6,east-northeast,6.0
2023/09/04,12:30,3.7,east-northeast,7.0
2023/09/04,12:40,3.6,-,CALM
2023/09/04,12:50,3.6,east-northeast,6.6
2023/09/04,13:00,3.5,east-northeast,6.7
2023/09/04,13:10,3.7,east-northeast,6.4
2023/09/04,13:20,3.7,east,4.7
2023/09/04,13:30,3.8,-,CALM
2023/09/04,13:40,3.7,-,CALM
2023/09/04,13:50,3.6,-,CALM
2023/09/04,14:00,3.6,-,CALM
2023/09/04,14:10,3.7,-,CALM
2023/09/04,14:20,3.6,-,CALM
2023/09/04,14:30,3.5,-,CALM
2023/09/04,14:40,3.7,-,CALM
2023/09/04,14:50,3.7,-,CALM
2023/09/04,15:00,3.5,-,CALM
2023/09/04,15:10,3.5,east,10.5
2023/09/04,15:20,3.5,-,CALM
2023/09/04,15:30,3.7,-,CALM
2023/09/04,15:40,3.6,-,CALM
2023/09/04,15:50,3.7,-,CALM
2023/09/04,16:00,3.6,-,CALM
2023/09/04,16:10,3.5,-,CALM
2023/09/04,16:20,3.6,east,6.2
2023/09/04,16:30,3.7,southeast,9.7
2023/09/04,16:40,3.6,east-southeast,7.7
2023/09/04,16:50,3.7,southeast,6.0
2023/09/04,17:00,3.6,east,4.7
2023/09/04,17:10,3.6,east,5.5
2023/09/04,17:20,3.7,east,5.3
2023/09/04,17:30,3.7,east,5.7
2023/09/04,17:40,3.5,east-southeast,5.4
2023/09/04,17:50,3.6,east,6.4
2023/09/04,18:00,3.4,east-southeast,6.8
2023/09/04,18:10,3.6,east-southeast,6.0
2023/09/04,18:20,3.6,east-southeast,6.9
2023/09/04,18:30,3.6,east-southeast,6.8
2023/09/04,18:40,3.5,east-southeast,7.3
2023/09/04,18:50,3.6,east-southeast,6.7
2023/09/04,19:00,3.6,east-southeast,6.0
2023/09/04,19:10,3.6,southeast,7.8
2023/09/04,19:20,3.7,southeast,6.3
2023/09/04,19:30,3.5,southeast,5.4
2023/09/04,19:40,3.5,southeast,5.9
2023/09/04,19:50,3.6,southeast,7.1
2023/09/04,20:00,3.5,southeast,5.9
2023/09/04,20:10,3.9,southeast,6.5
2023/09/04,20:20,3.5,southeast,6.5
2023/09/04,20:30,3.6,southeast,5.8
2023/09/04,20:40,3.6,southeast,4.7
2023/09/04,20:50,3.7,southeast,4.8
2023/09/04,21:00,3.6,southeast,4.7
2023/09/04,21:10,3.6,southeast,5.5
2023/09/04,21:20,3.6,southeast,5.5
2023/09/04,21:30,3.7,south-southeast,5.3
2023/09/04,21:40,3.7,south-southeast,4.2
2023/09/04,21:50,3.6,south-southeast,5.1
2023/09/04,22:00,3.6,south-southeast,4.9
2023/09/04,22:10,3.8,south-southeast,4.7
2023/09/04,22:20,3.6,south,4.4
2023/09/04,22:30,3.6,south,4.5
2023/09/04,22:40,3.6,south,3.4
2023/09/04,22:50,3.6,south,3.2
2023/09/04,23:00,3.7,south,3.4
2023/09/04,23:10,3.5,south,3.4
2023/09/04,23:20,3.7,south,2.9
2023/09/04,23:30,3.7,south,3.0
2023/09/04,23:40,3.6,south,2.5
2023/09/04,23:50,3.5,south,2.3
